This demonstration page uses our WeatherBlox Daily Observations layout. Learn more.

Left ArrowRight Arrow

31.84235, -102.49876

Hourly Observations for August 18, 2015

Temp ( °F °C ) Dew Point ( °F °C ) Humidity (%) Winds ( mph kmh ) Pressure ( in mb ) Visibility ( mi km ) Precip ( " mm )
12:53 am 00:53 Clear 84 28.9 51 10.6 32 32 S 14 22 29.78 1008 10 16 0.00 0.00
1:53 am 01:53 Clear 83 28.3 51 10.6 33 33 S 15 24 29.78 1009 10 16 0.00 0.00
2:53 am 02:53 Clear 82 27.8 53 11.7 37 37 S 18 30 29.75 1007 10 16 0.00 0.00
3:53 am 03:53 Clear 81 27.2 54 12.2 39 39 S 16 26 29.74 1007 10 16 0.00 0.00
4:53 am 04:53 Clear 80 26.7 56 13.3 44 44 S 16 26 29.75 1007 10 16 0.00 0.00
5:53 am 05:53 Clear 79 26.1 58 14.4 49 49 S 18 30 29.74 1007 10 16 0.00 0.00
6:53 am 06:53 Clear 78 25.6 59 15 52 52 S 16 26 29.75 1008 10 16 0.00 0.00
7:53 am 07:53 Sunny 77 25 60 15.6 56 56 S 15 24 29.76 1008 10 16 0.00 0.00
8:39 am 08:39 Mostly Cloudy with Thunderstorms 77 25 60 15.6 56 56 undefined N/A 29.83 1010 10 16 0.00 0.00
8:53 am 08:53 Cloudy with Thunderstorms 74 23.3 62 16.7 67 67 E 9 15 29.85 1011 5 8 0.01 0.25
9:21 am 09:21 Cloudy with Light Rain 70 21.1 64 17.8 82 82 NE 8 13 29.88 1012 8 13 0.05 1.27
9:53 am 09:53 Partly Cloudy 73 22.8 65 18.3 76 76 ESE 5 7 29.84 1011 10 16 0.05 1.27
10:53 am 10:53 Mostly Sunny 77 25 63 17.2 62 62 S 15 24 29.76 1008 10 16 0.00 0.03
11:53 am 11:53 Mostly Sunny 84 28.9 61 16.1 46 46 S 16 26 29.73 1007 10 16 0.00 0.00
12:53 pm 12:53 Sunny 89 31.7 59 15 36 36 SSW 16 26 29.71 1006 10 16 0.00 0.00
1:53 pm 13:53 Sunny 93 33.9 55 12.8 28 28 S 15 24 29.69 1005 10 16 0.00 0.00
2:53 pm 14:53 Sunny 95 35 55 12.8 26 26 SSW 10 17 29.66 1005 10 16 0.00 0.00
3:53 pm 15:53 Sunny 96 35.6 56 13.3 26 26 S 12 19 29.64 1004 10 16 0.00 0.00
4:53 pm 16:53 Sunny 96 35.6 56 13.3 26 26 undefined N/A 29.61 1003 10 16 0.00 0.00
5:53 pm 17:53 Sunny 97 36.1 55 12.8 24 24 VRB 7 11 29.60 1002 10 16 0.00 0.00
6:53 pm 18:53 Sunny 95 35 54 12.2 25 25 SE 6 9 29.59 1002 10 16 0.00 0.00
7:53 pm 19:53 Sunny 94 34.4 55 12.8 27 27 SSE 7 11 29.58 1002 10 16 0.00 0.00
8:04 pm 20:04 Mostly Sunny 94 34.4 55 12.8 27 27 SSE 6 9 29.47 998 10 16 0.00 0.00
8:53 pm 20:53 Mostly Clear 90 32.2 55 12.8 31 31 SSE 9 15 29.61 1003 10 16 0.00 0.00
9:53 pm 21:53 Clear 89 31.7 55 12.8 31 31 SSE 13 20 29.63 1003 10 16 0.00 0.00
10:53 pm 22:53 Clear 88 31.1 55 12.8 33 33 SSE 15 24 29.65 1004 10 16 0.00 0.00
11:53 pm 23:53 Clear 86 30 56 13.3 36 36 S 13 20 29.66 1004 10 16 0.00 0.00

Powered by AerisWeather